Lid_Strength_Index
1 -0 -0 -0 0 0 1 1 2 3 4 4 4 4 4 4 6 8 13 12 11 13 14 14 14 14 14 13 13 15 13 14 15 16 17 18 18 17 19 17 15 14 15 15 16 18 17 11 10 13 13 12 13 13
2 1 -0 -0 0 0 1 1 2 3 4 4 4 3 4 5 6 9 12 13 12 13 14 13 12 12 12 13 12 14 14 16 13 15 17 17 18 19 19 18 16 16 13 13 14 13 11 11 11 10 11 12 13 13
2 1 -0 0 0 0 1 1 2 3 3 3 3 3 4 5 6 9 12 13 13 15 15 14 14 12 11 11 11 12 14 13 13 13 14 15 17 15 17 18 18 15 13 13 13 11 11 11 11 12 12 12 12 12
2 1 -0 0 0 0 1 1 2 2 3 3 3 4 4 5 6 10 11 12 12 14 14 17 13 13 11 11 11 11 12 12 13 13 16 16 16 14 15 16 17 14 13 14 13 12 11 13 13 13 12 13 13 13
2 1 0 0 0 0 1 1 2 2 3 3 4 4 4 5 6 11 12 12 12 11 16 19 15 13 11 11 12 12 12 13 13 16 17 17 16 16 15 17 17 15 15 15 15 13 12 12 14 14 13 14 14 14
2 1 0 0 0 0 1 1 2 2 3 3 4 4 4 6 8 9 13 11 12 12 16 18 16 14 13 12 12 13 12 13 13 15 16 15 13 16 19 21 16 16 15 13 13 14 13 13 14 14 14 15 15 16
3 1 0 0 0 0 1 1 2 2 3 3 3 4 5 6 7 12 13 10 11 12 15 20 20 15 13 13 14 14 13 14 14 15 16 16 15 15 19 21 16 16 15 15 15 15 14 14 14 16 16 16 18 19
5 2 0 0 0 1 1 2 2 3 3 3 4 5 5 7 9 13 12 11 13 15 16 22 21 19 14 16 17 14 16 15 15 16 15 17 16 17 21 18 17 17 18 17 16 16 17 18 18 18 20 20 20 19
5 4 2 1 0 1 1 2 2 3 3 4 5 5 8 11 14 14 11 13 14 13 17 19 19 20 16 17 16 16 15 19 17 19 18 19 21 22 18 17 19 18 17 15 20 22 23 21 20 21 22 21 19 19
6 5 4 3 1 1 1 2 3 3 4 5 7 12 14 13 10 10 15 14 15 17 20 18 21 20 17 17 18 18 17 19 22 21 21 22 22 19 19 18 18 20 20 21 20 19 22 21 23 23 22 24 22 20
6 6 5 4 2 1 1 1 2 5 6 9 14 16 13 9 12 17 20 18 20 19 20 21 20 20 17 20 20 18 22 23 23 23 23 23 23 19 19 21 20 21 21 22 23 23 24 22 21 22 24 24 24 23
7 6 5 4 2 1 1 2 4 7 11 11 12 12 14 14 17 16 20 25 23 19 24 21 21 19 19 19 20 20 24 26 22 30 24 22 18 18 21 22 24 26 26 26 27 24 25 25 26 27 26 25 25 25
7 6 5 4 2 1 2 3 5 7 9 10 13 17 14 19 21 20 23 26 25 24 25 22 22 21 22 21 24 23 23 24 31 26 21 19 18 20 22 25 27 31 30 28 28 27 27 28 31 29 27 28 26 26
6 6 5 4 1 3 3 4 6 7 10 14 16 19 17 21 21 21 21 20 20 22 23 22 24 21 23 23 25 22 29 27 25 25 20 16 19 20 23 26 25 25 27 25 24 27 27 27 28 30 29 27 25 25
7 6 5 4 2 3 5 5 6 8 12 15 15 18 22 22 26 25 22 21 22 19 22 23 24 22 26 26 27 27 27 24 22 19 17 17 21 23 24 26 25 24 26 26 26 26 26 27 25 27 29 26 25 26
7 6 6 4 3 4 5 5 8 12 14 16 18 22 25 21 26 25 23 22 21 19 22 21 26 25 26 25 26 23 22 21 17 19 17 22 24 23 24 25 24 24 24 24 25 25 25 26 24 25 28 26 26 25
7 9 4 3 4 4 5 9 9 13 15 18 20 25 20 18 20 21 20 20 17 18 20 23 23 22 28 27 27 25 22 17 17 19 22 23 21 22 24 25 25 25 24 24 25 25 25 27 26 24 24 27 26 26
9 8 4 3 4 5 10 12 13 14 18 22 21 22 24 23 20 21 20 18 18 22 22 20 26 27 23 22 23 21 22 22 24 23 22 24 25 24 22 23 25 23 23 25 24 26 26 25 22 22 26 27 28 28
9 8 4 4 6 10 12 13 14 20 23 24 24 24 23 21 19 18 17 24 24 22 23 24 23 22 21 21 19 20 23 22 20 23 24 29 27 25 24 23 23 23 23 24 24 23 22 23 20 23 24 24 24 25
7 8 4 5 7 11 15 16 13 17 20 22 22 23 22 21 21 20 23 25 23 22 22 22 20 19 19 19 20 19 20 22 20 21 22 24 27 26 23 22 22 23 24 24 24 24 24 24 23 23 23 23 24 26
8 5 5 7 13 15 16 18 20 20 21 21 21 21 22 20 20 19 20 26 21 23 21 22 21 21 27 27 27 26 23 20 18 16 18 22 27 23 24 23 23 23 23 23 23 22 21 20 21 23 23 23 24 25
7 5 10 11 15 17 18 19 19 22 22 21 20 19 20 20 20 19 22 23 23 19 20 21 23 24 25 24 25 26 25 26 26 24 24 24 26 24 23 22 22 22 21 20 20 21 20 21 22 23 23 25 26 26
8 9 12 13 16 16 19 18 18 19 19 21 20 21 22 21 20 22 20 23 22 21 23 25 27 31 24 31 31 30 27 23 22 22 22 22 21 20 20 21 19 20 21 21 20 19 21 22 23 24 26 26 26 27
9 14 16 17 17 20 18 19 18 20 20 20 21 24 22 22 22 21 21 24 21 25 25 24 24 23 24 25 23 22 24 23 24 24 22 21 21 22 21 20 20 18 18 21 20 21 23 23 24 25 25 26 26 27
14 17 16 19 18 19 21 21 21 21 23 23 23 25 24 23 22 22 23 21 22 22 22 24 24 21 17 19 24 24 28 20 19 20 22 22 23 23 24 24 22 20 20 20 21 22 23 23 24 24 25 25 26 26
19 20 17 17 19 18 22 22 22 23 22 23 24 25 25 22 21 20 23 20 20 21 21 20 19 21 20 19 19 22 20 23 20 20 21 20 19 18 20 22 22 20 20 18 19 21 23 23 23 24 25 25 25 26
20 21 21 21 22 23 24 23 21 18 19 21 26 26 23 18 18 20 26 31 27 32 31 31 27 20 18 22 26 27 25 19 20 20 22 18 18 19 17 18 19 17 19 18 18 19 20 22 22 23 23 24 25 25
27 28 20 26 25 25 19 20 18 17 19 25 22 22 17 17 17 30 32 31 32 32 32 32 31 29 27 28 25 24 26 27 25 23 22 23 26 26 25 23 21 18 18 17 17 18 18 19 21 22 23 24 25 24
30 32 30 25 25 27 29 24 23 28 30 22 20 21 23 34 36 36 34 34 33 34 31 29 29 30 29 29 29 29 24 20 19 21 21 20 23 20 23 23 21 21 19 18 17 18 18 19 20 21 21 22 24 24
31 32 30 28 26 32 35 36 34 34 33 32 31 31 32 34 35 35 36 37 37 36 36 36 37 34 30 27 28 27 30 31 29 22 20 21 20 23 22 22 22 21 20 19 20 19 18 20 22 24 25 25 25 26
36 36 31 31 33 34 34 34 33 32 29 29 29 28 32 34 35 36 37 38 39 36 35 34 33 34 32 30 31 28 26 29 32 30 30 29 28 26 24 22 21 20 20 20 20 21 23 24 23 24 25 26 26 26
32 33 30 28 28 31 31 28 26 25 25 24 28 31 33 31 32 35 37 38 36 36 37 36 36 36 36 35 36 35 33 33 33 31 30 29 28 27 24 23 21 21 21 21 22 23 23 23 24 24 25 26 26 25
30 31 28 27 27 26 27 25 22 22 23 24 29 33 35 34 33 38 37 39 39 39 39 38 37 36 34 33 33 32 30 31 30 25 24 24 25 24 25 24 23 23 24 24 24 23 24 24 24 25 26 26 25 26